Starlink 5564

operational
NORAD ID: 56134 Int'l Des: 2023-046 Owner: SPXS Country: US Constellation: starlink
LEOCIRCULAR

Über Starlink 5564

Beschreibung wird geladen...

Live-Position

3D-Globus wird geladen...

Nächste Überflüge

Höhenverlauf

Altitude vs Time

uPlot chart will show altitude changes over time

Zweizeiliger Elementsatz

1 56134U 23046AU 26072.00002314 .01392439 00000-0 64086-1 0 9997
2 56134 42.9997 127.5395 0001783 286.4219 127.0322 15.16664130 5784
Epoch: 13. März 2026 • Age: 10 hours

Aktueller Status

Höhe 517.0 km
Geschwindigkeit 7.61 km/s
Subsatellitenpunkt 42.85°N, 92.32°W
Startdatum 29. März 2023
Alter 2.9 years
Typ internet

Technische Details

Klassifizierung Payload
Masse 305.00 kg
Trockenmasse 290.00 kg
Gesamtmasse 305.00 kg
Länge 0.20 m
Durchmesser 2.80 m
Spannweite 9.00 m
Form Box + pan
Hersteller SPXS
Bus-Typ Starlink
Phasenstatus In Orbit
Besitzer/Staat SPXS/US

Große Konstellationen

Loading constellations...